Cross City, FL

10:53 AM EST on December 08, 2019 (GMT -0500)
Cross City

Weather History for KCTY - July, 2019

Change the Weather History Date:

Friday, July 26, 2019

  Actual Average Record
Temperature  
Mean Temperature 78 °F 82 °F  
Max Temperature 84 °F 91 °F 95 °F (2005)
Min Temperature 71 °F 72 °F 70 °F (2000)
Degree Days  
Heating Degree Days 0 0  
Month to date heating degree days 0  
Since 1 June heating degree days 0  
Since 1 July heating degree days 0  
Cooling Degree Days 12 17  
Month to date cooling degree days 426  
Year to date cooling degree days 1352  
Since 1 June cooling degree days 873  
Growing Degree Days 28 (Base 50)    
Moisture  
Dew Point 72 °F    
Average Humidity 90    
Maximum Humidity 98    
Minimum Humidity 69    
Precipitation  
Precipitation 0.24 in 0.21 in 0.65 in (2013)
Month to date precipitation 4.65  
Year to date precipitation 26.91  
Sea Level Pressure  
Sea Level Pressure 30.13 in    
Wind  
Wind Speed 4 mph (ENE)    
Max Wind Speed 18 mph    
Max Gust Speed 24 mph    
Visibility 9 miles    
Events Rain , Thunderstorm    
T = Trace of Precipitation, MM = Missing Value Source: NWS Daily Summary

Daily Weather History Graph

Daily Weather History Graph

Search for Another Location

Airport or City:

Astronomy

Jul. 26, 2019 Rise Set
Actual Time 6:48 AM EDT 8:29 PM EDT
Civil Twilight 6:22 AM EDT 8:55 PM EDT
Nautical Twilight 5:50 AM EDT 9:26 PM EDT
Astronomical Twilight 5:17 AM EDT 9:59 PM EDT
Moon 1:51 AM EDT (7/26) 3:19 PM EDT (7/26)
Length of Visible Light 14h 33m
Length of Day
13h 40m
Waning Crescent, 34% of the Moon is Illuminated
Jul 26
Waning Crescent
Jul 31
New
Aug 7
First Quarter
Aug 15
Full
Aug 23
Last Quarter

Hourly Weather History & Observations

Time (EDT) Temp. Heat Index Dew Point Humidity Pressure Visibility Wind Dir Wind Speed Gust Speed Precip Events Conditions
12:15 AM 74.3 °F - 71.2 °F 90% 30.10 in 10.0 mi East 3.5 mph - N/A   Clear
12:35 AM 74.1 °F - 71.1 °F 90% 30.10 in 10.0 mi Calm Calm - N/A   Clear
12:55 AM 73.9 °F - 71.1 °F 91% 30.11 in 10.0 mi NE 4.6 mph - N/A   Scattered Clouds
1:15 AM 73.9 °F - 71.1 °F 91% 30.10 in 10.0 mi NE 4.6 mph - N/A   Mostly Cloudy
1:35 AM 73.9 °F - 71.2 °F 91% 30.10 in 10.0 mi NE 4.6 mph - N/A   Overcast
1:55 AM 73.9 °F - 71.2 °F 91% 30.10 in 10.0 mi NE 4.6 mph - N/A   Overcast
2:15 AM 74.1 °F - 71.1 °F 90% 30.09 in 10.0 mi ENE 5.8 mph - N/A   Overcast
2:35 AM 73.4 °F - 71.6 °F 94% 30.09 in 10.0 mi NE 3.5 mph - N/A   Overcast
2:55 AM 74.1 °F - 71.2 °F 91% 30.08 in 10.0 mi ENE 4.6 mph - N/A   Overcast
3:15 AM 73.9 °F - 71.6 °F 92% 30.07 in 10.0 mi East 3.5 mph - N/A   Overcast
3:35 AM 73.4 °F - 71.6 °F 94% 30.07 in 10.0 mi Calm Calm - N/A   Overcast
3:55 AM 73.6 °F - 71.6 °F 93% 30.07 in 10.0 mi East 3.5 mph - N/A   Overcast
4:15 AM 73.2 °F - 71.4 °F 94% 30.07 in 10.0 mi Calm Calm - N/A   Mostly Cloudy
4:35 AM 72.5 °F - 71.1 °F 95% 30.08 in 10.0 mi Calm Calm - N/A   Scattered Clouds
4:55 AM 73.4 °F - 71.6 °F 94% 30.08 in 10.0 mi Calm Calm - N/A   Mostly Cloudy
5:15 AM 73.0 °F - 71.8 °F 96% 30.08 in 10.0 mi Calm Calm - N/A   Overcast
5:35 AM 72.9 °F - 71.6 °F 96% 30.08 in 10.0 mi Calm Calm - N/A   Mostly Cloudy
5:55 AM 72.5 °F - 71.6 °F 97% 30.09 in 10.0 mi Calm Calm - N/A   Scattered Clouds
6:15 AM 72.5 °F - 71.6 °F 97% 30.09 in 10.0 mi Calm Calm - N/A   Clear
6:35 AM 72.7 °F - 71.6 °F 96% 30.10 in 7.0 mi North 3.5 mph - N/A   Clear
6:55 AM 72.7 °F - 71.8 °F 97% 30.11 in 7.0 mi NE 3.5 mph - N/A Thunderstorm Scattered Clouds
7:15 AM 72.7 °F - 71.8 °F 97% 30.11 in 10.0 mi ENE 3.5 mph - N/A   Clear
7:35 AM 72.9 °F - 72.0 °F 97% 30.12 in 10.0 mi ENE 4.6 mph - N/A   Clear
7:55 AM 73.2 °F - 72.1 °F 96% 30.13 in 10.0 mi Calm Calm - N/A   Mostly Cloudy
8:15 AM 73.8 °F - 72.5 °F 96% 30.13 in 10.0 mi ENE 3.5 mph - N/A   Scattered Clouds
8:35 AM 74.7 °F - 72.7 °F 94% 30.13 in 10.0 mi NE 3.5 mph - N/A   Clear
8:55 AM 75.2 °F - 72.9 °F 92% 30.14 in 10.0 mi NE 4.6 mph - N/A   Clear
9:15 AM 75.2 °F - 72.9 °F 92% 30.13 in 10.0 mi NNE 3.5 mph - N/A   Clear
9:35 AM 75.4 °F - 73.0 °F 92% 30.13 in 10.0 mi NE 6.9 mph - N/A   Clear
9:55 AM 75.4 °F - 73.0 °F 92% 30.13 in 10.0 mi NE 3.5 mph - N/A   Clear
10:15 AM 75.6 °F - 73.0 °F 92% 30.13 in 10.0 mi East 5.8 mph - N/A   Clear
10:35 AM 75.6 °F - 72.9 °F 91% 30.15 in 10.0 mi Calm Calm - N/A   Scattered Clouds
10:55 AM 75.4 °F - 72.9 °F 92% 30.16 in 10.0 mi North 4.6 mph - N/A   Scattered Clouds
11:15 AM 75.2 °F - 73.0 °F 93% 30.16 in 10.0 mi ENE 3.5 mph - N/A Rain , Thunderstorm Light Thunderstorms and Rain
11:35 AM 74.7 °F - 73.2 °F 95% 30.17 in 3.5 mi Calm Calm - 0.03 in Rain Rain
11:55 AM 74.7 °F - 73.8 °F 97% 30.17 in 2.5 mi Calm Calm - 0.06 in Rain Rain
12:15 PM 74.7 °F - 73.9 °F 98% 30.17 in 4.0 mi Calm Calm - 0.02 in Rain Rain
12:35 PM 74.8 °F - 73.6 °F 96% 30.18 in 5.0 mi Calm Calm - 0.05 in Rain Rain
12:55 PM 74.8 °F - 73.9 °F 97% 30.17 in 5.0 mi Calm Calm - 0.08 in Rain Rain
1:15 PM 75.2 °F - 74.5 °F 98% 30.16 in 7.0 mi NNE 5.8 mph - 0.01 in Rain Light Rain
1:35 PM 75.2 °F - 74.5 °F 98% 30.16 in 7.0 mi NE 5.8 mph - 0.02 in Rain Rain
1:55 PM 75.7 °F - 74.8 °F 97% 30.16 in 7.0 mi North 5.8 mph - 0.03 in Rain Light Rain
2:15 PM 75.9 °F - 75.0 °F 97% 30.16 in 10.0 mi NNW 5.8 mph - 0.01 in Rain Light Rain
2:35 PM 77.5 °F - 74.7 °F 91% 30.16 in 10.0 mi NNE 6.9 mph - 0.01 in   Mostly Cloudy
2:55 PM 78.6 °F - 74.7 °F 88% 30.15 in 10.0 mi ESE 6.9 mph - 0.01 in   Mostly Cloudy
3:15 PM 79.5 °F - 74.8 °F 86% 30.14 in 10.0 mi East 6.9 mph - N/A   Mostly Cloudy
3:35 PM 81.1 °F 86.8 °F 74.5 °F 80% 30.14 in 10.0 mi East 5.8 mph - N/A   Mostly Cloudy
3:55 PM 82.2 °F 88.5 °F 74.3 °F 77% 30.14 in 10.0 mi ENE 5.8 mph - N/A   Mostly Cloudy
4:15 PM 82.2 °F 87.3 °F 72.5 °F 72% 30.13 in 7.0 mi NE 5.8 mph - N/A   Mostly Cloudy
4:35 PM 82.6 °F 88.1 °F 72.7 °F 72% 30.12 in 10.0 mi NE 5.8 mph - N/A   Mostly Cloudy
4:55 PM 83.1 °F 89.2 °F 73.2 °F 72% 30.12 in 10.0 mi NE 4.6 mph - N/A   Mostly Cloudy
5:15 PM 83.1 °F 88.9 °F 72.9 °F 71% 30.13 in 10.0 mi ENE 3.5 mph - N/A   Scattered Clouds
5:35 PM 82.2 °F 87.6 °F 72.7 °F 73% 30.12 in 10.0 mi NE 3.5 mph - N/A   Clear
5:55 PM 83.7 °F 89.4 °F 72.5 °F 69% 30.11 in 10.0 mi East 4.6 mph - N/A   Clear
6:15 PM 84.4 °F 91.0 °F 73.4 °F 69% 30.11 in 10.0 mi NE 8.1 mph - N/A   Clear
6:35 PM 83.7 °F 89.4 °F 72.7 °F 69% 30.11 in 10.0 mi ENE 4.6 mph - N/A   Clear
6:55 PM 83.3 °F 89.6 °F 73.4 °F 72% 30.11 in 10.0 mi NE 5.8 mph - N/A   Scattered Clouds
7:15 PM 80.8 °F 85.1 °F 72.1 °F 75% 30.13 in 7.0 mi ENE 18.4 mph 24.2 mph N/A   Mostly Cloudy
7:35 PM 73.2 °F - 71.2 °F 93% 30.14 in 2.5 mi ESE 8.1 mph - 0.22 in Rain Rain
7:55 PM 73.8 °F - 70.7 °F 90% 30.13 in 10.0 mi ESE 3.5 mph - 0.22 in   Mostly Cloudy
8:15 PM 73.6 °F - 71.2 °F 92% 30.14 in 10.0 mi Calm Calm - N/A   Mostly Cloudy
8:35 PM 73.8 °F - 71.6 °F 93% 30.15 in 10.0 mi NNE 5.8 mph - N/A   Mostly Cloudy
8:55 PM 74.1 °F - 71.1 °F 90% 30.17 in 10.0 mi NNE 11.5 mph - N/A   Overcast
9:15 PM 73.2 °F - 71.2 °F 93% 30.17 in 10.0 mi NE 8.1 mph - N/A   Mostly Cloudy
9:35 PM 72.9 °F - 71.2 °F 95% 30.18 in 10.0 mi ENE 6.9 mph - N/A   Mostly Cloudy
9:55 PM 72.5 °F - 70.5 °F 93% 30.18 in 10.0 mi East 6.9 mph - N/A   Mostly Cloudy
10:15 PM 71.8 °F - 69.4 °F 92% 30.17 in 10.0 mi East 5.8 mph - N/A   Overcast
10:35 PM 71.8 °F - 69.3 °F 92% 30.17 in 10.0 mi East 4.6 mph - N/A   Overcast
10:55 PM 72.3 °F - 69.8 °F 92% 30.18 in 10.0 mi East 3.5 mph - N/A   Mostly Cloudy
11:15 PM 72.3 °F - 70.2 °F 93% 30.18 in 10.0 mi ENE 4.6 mph - N/A   Overcast
11:35 PM 72.7 °F - 70.5 °F 93% 30.17 in 10.0 mi East 6.9 mph - N/A   Overcast
11:55 PM 72.5 °F - 70.2 °F 92% 30.17 in - NE 5.8 mph - N/A   Overcast